Year,Month,Day,Hour,Minute,Value (Times are PST for barometer in hPa)
2014,02,15,00,00,1010.87
2014,02,15,00,01,1010.90
2014,02,15,00,02,1010.84
2014,02,15,00,03,1010.84
2014,02,15,00,04,1010.84
2014,02,15,00,05,1010.80
2014,02,15,00,06,1010.77
2014,02,15,00,07,1010.84
2014,02,15,00,08,1010.80
2014,02,15,00,09,1010.84
2014,02,15,00,10,1010.77
2014,02,15,00,11,1010.80
2014,02,15,00,12,1010.77
2014,02,15,00,13,1010.77
2014,02,15,00,14,1010.74
2014,02,15,00,15,1010.77
2014,02,15,00,16,1010.74
2014,02,15,00,17,1010.77
2014,02,15,00,18,1010.77
2014,02,15,00,19,1010.77
2014,02,15,00,20,1010.80
2014,02,15,00,21,1010.84
2014,02,15,00,22,1010.84
2014,02,15,00,23,1010.80
2014,02,15,00,24,1010.80
2014,02,15,00,25,1010.80
2014,02,15,00,26,1010.77
2014,02,15,00,27,1010.77
2014,02,15,00,28,1010.77
2014,02,15,00,29,1010.80
2014,02,15,00,30,1010.80
2014,02,15,00,31,1010.74
2014,02,15,00,32,1010.80
2014,02,15,00,33,1010.84
2014,02,15,00,34,1010.80
2014,02,15,00,35,1010.84
2014,02,15,00,36,1010.74
2014,02,15,00,37,1010.74
2014,02,15,00,38,1010.80
2014,02,15,00,39,1010.80
2014,02,15,00,40,1010.84
2014,02,15,00,41,1010.84
2014,02,15,00,42,1010.87
2014,02,15,00,43,1010.87
2014,02,15,00,44,1010.91
2014,02,15,00,45,1010.87
2014,02,15,00,46,1010.91
2014,02,15,00,47,1010.87
2014,02,15,00,48,1010.87
2014,02,15,00,49,1010.87
2014,02,15,00,50,1010.87
2014,02,15,00,51,1010.87
2014,02,15,00,52,1010.87
2014,02,15,00,53,1010.84
2014,02,15,00,54,1010.87
2014,02,15,00,55,1010.84
2014,02,15,00,56,1010.87
2014,02,15,00,57,1010.87
2014,02,15,00,58,1010.84
2014,02,15,00,59,1010.84
2014,02,15,01,00,1010.84
2014,02,15,01,01,1010.80
2014,02,15,01,02,1010.77
2014,02,15,01,03,1010.77
2014,02,15,01,04,1010.80
2014,02,15,01,05,1010.77
2014,02,15,01,06,1010.77
2014,02,15,01,07,1010.77
2014,02,15,01,08,1010.77
2014,02,15,01,09,1010.74
2014,02,15,01,10,1010.74
2014,02,15,01,11,1010.70
2014,02,15,01,12,1010.67
2014,02,15,01,13,1010.60
2014,02,15,01,14,1010.50
2014,02,15,01,15,1010.43
2014,02,15,01,16,1010.36
2014,02,15,01,17,1010.36
2014,02,15,01,18,1010.33
2014,02,15,01,19,1010.36
2014,02,15,01,20,1010.33
2014,02,15,01,21,1010.33
2014,02,15,01,22,1010.30
2014,02,15,01,23,1010.33
2014,02,15,01,24,1010.30
2014,02,15,01,25,1010.30
2014,02,15,01,26,1010.26
2014,02,15,01,27,1010.23
2014,02,15,01,28,1010.23
2014,02,15,01,29,1010.16
2014,02,15,01,30,1010.16
2014,02,15,01,31,1010.09
2014,02,15,01,32,1010.15
2014,02,15,01,33,1009.99
2014,02,15,01,34,1009.96
2014,02,15,01,35,1009.96
2014,02,15,01,36,1009.89
2014,02,15,01,37,1009.89
2014,02,15,01,38,1009.92
2014,02,15,01,39,1009.92
2014,02,15,01,40,1009.89
2014,02,15,01,41,1009.96
2014,02,15,01,42,1009.99
2014,02,15,01,43,1010.02
2014,02,15,01,44,1010.02
2014,02,15,01,45,1009.99
2014,02,15,01,46,1009.99
2014,02,15,01,47,1009.99
2014,02,15,01,48,1009.99
2014,02,15,01,49,1010.02
2014,02,15,01,50,1010.02
2014,02,15,01,51,1009.96
2014,02,15,01,52,1010.02
2014,02,15,01,53,1009.96
2014,02,15,01,54,1009.89
2014,02,15,01,55,1009.86
2014,02,15,01,56,1009.75
2014,02,15,01,57,1009.79
2014,02,15,01,58,1009.75
2014,02,15,01,59,1009.72
2014,02,15,02,00,1009.69
2014,02,15,02,01,1009.72
2014,02,15,02,02,1009.69
2014,02,15,02,03,1009.75
2014,02,15,02,04,1009.75
2014,02,15,02,05,1009.69
2014,02,15,02,06,1009.65
2014,02,15,02,07,1009.62
2014,02,15,02,08,1009.62
2014,02,15,02,09,1009.62
2014,02,15,02,10,1009.65
2014,02,15,02,11,1009.65
2014,02,15,02,12,1009.69
2014,02,15,02,13,1009.65
2014,02,15,02,14,1009.72
2014,02,15,02,15,1009.79
2014,02,15,02,16,1009.75
2014,02,15,02,17,1009.79
2014,02,15,02,18,1009.79
2014,02,15,02,19,1009.79
2014,02,15,02,20,1009.79
2014,02,15,02,21,1009.72
2014,02,15,02,22,1009.75
2014,02,15,02,23,1009.69
2014,02,15,02,24,1009.75
2014,02,15,02,25,1009.72
2014,02,15,02,26,1009.75
2014,02,15,02,27,1009.69
2014,02,15,02,28,1009.69
2014,02,15,02,29,1009.69
2014,02,15,02,30,1009.65
2014,02,15,02,31,1009.69
2014,02,15,02,32,1009.69
2014,02,15,02,33,1009.69
2014,02,15,02,34,1009.69
2014,02,15,02,35,1009.75
2014,02,15,02,36,1009.72
2014,02,15,02,37,1009.75
2014,02,15,02,38,1009.79
2014,02,15,02,39,1009.75
2014,02,15,02,40,1009.79
2014,02,15,02,41,1009.69
2014,02,15,02,42,1009.58
2014,02,15,02,43,1009.52
2014,02,15,02,44,1009.52
2014,02,15,02,45,1009.55
2014,02,15,02,46,1009.55
2014,02,15,02,47,1009.58
2014,02,15,02,48,1009.58
2014,02,15,02,49,1009.55
2014,02,15,02,50,1009.65
2014,02,15,02,51,1009.65
2014,02,15,02,52,1009.66
2014,02,15,02,53,1009.75
2014,02,15,02,54,1009.79
2014,02,15,02,55,1009.82
2014,02,15,02,56,1009.89
2014,02,15,02,57,1009.89
2014,02,15,02,58,1009.86
2014,02,15,02,59,1009.89
2014,02,15,03,00,1009.82
2014,02,15,03,01,1009.96
2014,02,15,03,02,1009.86
2014,02,15,03,03,1009.82
2014,02,15,03,04,1009.79
2014,02,15,03,05,1009.79
2014,02,15,03,06,1009.72
2014,02,15,03,07,1009.79
2014,02,15,03,08,1009.79
2014,02,15,03,09,1009.82
2014,02,15,03,10,1009.72
2014,02,15,03,11,1009.72
2014,02,15,03,12,1009.65
2014,02,15,03,13,1009.65
2014,02,15,03,14,1009.65
2014,02,15,03,15,1009.62
2014,02,15,03,16,1009.64
2014,02,15,03,17,1009.57
2014,02,15,03,18,1009.52
2014,02,15,03,19,1009.52
2014,02,15,03,20,1009.48
2014,02,15,03,21,1009.48
2014,02,15,03,22,1009.48
2014,02,15,03,23,1009.45
2014,02,15,03,24,1009.38
2014,02,15,03,25,1009.35
2014,02,15,03,26,1009.41
2014,02,15,03,27,1009.35
2014,02,15,03,28,1009.30
2014,02,15,03,29,1009.24
2014,02,15,03,30,1009.15
2014,02,15,03,31,1009.20
2014,02,15,03,32,1009.14
2014,02,15,03,33,1009.14
2014,02,15,03,34,1009.10
2014,02,15,03,35,1009.03
2014,02,15,03,36,1008.98
2014,02,15,03,37,1009.04
2014,02,15,03,38,1008.97
2014,02,15,03,39,1008.91
2014,02,15,03,40,1008.91
2014,02,15,03,41,1008.94
2014,02,15,03,42,1008.91
2014,02,15,03,43,1008.87
2014,02,15,03,44,1008.84
2014,02,15,03,45,1008.81
2014,02,15,03,46,1008.77
2014,02,15,03,47,1008.81
2014,02,15,03,48,1008.84
2014,02,15,03,49,1008.81
2014,02,15,03,50,1008.81
2014,02,15,03,51,1008.81
2014,02,15,03,52,1008.84
2014,02,15,03,53,1008.84
2014,02,15,03,54,1008.81
2014,02,15,03,55,1008.78
2014,02,15,03,56,1008.84
2014,02,15,03,57,1008.84
2014,02,15,03,58,1008.87
2014,02,15,03,59,1008.86
2014,02,15,04,00,1008.82
2014,02,15,04,01,1008.91
2014,02,15,04,02,1008.87
2014,02,15,04,03,1008.87
2014,02,15,04,04,1008.87
2014,02,15,04,05,1008.91
2014,02,15,04,06,1008.87
2014,02,15,04,07,1008.84
2014,02,15,04,08,1008.87
2014,02,15,04,09,1008.83
2014,02,15,04,10,1008.77
2014,02,15,04,11,1008.81
2014,02,15,04,12,1008.74
2014,02,15,04,13,1008.70
2014,02,15,04,14,1008.67
2014,02,15,04,15,1008.70
2014,02,15,04,16,1008.63
2014,02,15,04,17,1008.57
2014,02,15,04,18,1008.53
2014,02,15,04,19,1008.50
2014,02,15,04,20,1008.47
2014,02,15,04,21,1008.43
2014,02,15,04,22,1008.40
2014,02,15,04,23,1008.40
2014,02,15,04,24,1008.43
2014,02,15,04,25,1008.43
2014,02,15,04,26,1008.43
2014,02,15,04,27,1008.47
2014,02,15,04,28,1008.53
2014,02,15,04,29,1008.50
2014,02,15,04,30,1008.43
2014,02,15,04,31,1008.40
2014,02,15,04,32,1008.40
2014,02,15,04,33,1008.40
2014,02,15,04,34,1008.40
2014,02,15,04,35,1008.43
2014,02,15,04,36,1008.37
2014,02,15,04,37,1008.37
2014,02,15,04,38,1008.33
2014,02,15,04,39,1008.37
2014,02,15,04,40,1008.33
2014,02,15,04,41,1008.33
2014,02,15,04,42,1008.26
2014,02,15,04,43,1008.27
2014,02,15,04,44,1008.33
2014,02,15,04,45,1008.33
2014,02,15,04,46,1008.37
2014,02,15,04,47,1008.40
2014,02,15,04,48,1008.47
2014,02,15,04,49,1008.47
2014,02,15,04,50,1008.50
2014,02,15,04,51,1008.47
2014,02,15,04,52,1008.43
2014,02,15,04,53,1008.43
2014,02,15,04,54,1008.50
2014,02,15,04,55,1008.43
2014,02,15,04,56,1008.47
2014,02,15,04,57,1008.47
2014,02,15,04,58,1008.36
2014,02,15,04,59,1008.26
2014,02,15,05,00,1008.20
2014,02,15,05,01,1008.16
2014,02,15,05,02,1008.09
2014,02,15,05,03,1008.06
2014,02,15,05,04,1008.03
2014,02,15,05,05,1007.98
2014,02,15,05,06,1007.92
2014,02,15,05,07,1007.82
2014,02,15,05,08,1007.79
2014,02,15,05,09,1007.86
2014,02,15,05,10,1007.96
2014,02,15,05,11,1007.99
2014,02,15,05,12,1008.03
2014,02,15,05,13,1008.06
2014,02,15,05,14,1008.06
2014,02,15,05,15,1008.06
2014,02,15,05,16,1007.99
2014,02,15,05,17,1007.96
2014,02,15,05,18,1007.93
2014,02,15,05,19,1007.93
2014,02,15,05,20,1007.93
2014,02,15,05,21,1007.89
2014,02,15,05,22,1007.93
2014,02,15,05,23,1007.96
2014,02,15,05,24,1007.93
2014,02,15,05,25,1007.93
2014,02,15,05,26,1007.89
2014,02,15,05,27,1007.86
2014,02,15,05,28,1007.81
2014,02,15,05,29,1007.69
2014,02,15,05,30,1007.76
2014,02,15,05,31,1007.79
2014,02,15,05,32,1007.79
2014,02,15,05,33,1007.82
2014,02,15,05,34,1007.71
2014,02,15,05,35,1007.58
2014,02,15,05,36,1007.48
2014,02,15,05,37,1007.42
2014,02,15,05,38,1007.42
2014,02,15,05,39,1007.45
2014,02,15,05,40,1007.38
2014,02,15,05,41,1007.35
2014,02,15,05,42,1007.38
2014,02,15,05,43,1007.35
2014,02,15,05,44,1007.32
2014,02,15,05,45,1007.35
2014,02,15,05,46,1007.35
2014,02,15,05,47,1007.32
2014,02,15,05,48,1007.35
2014,02,15,05,49,1007.35
2014,02,15,05,50,1007.32
2014,02,15,05,51,1007.28
2014,02,15,05,52,1007.32
2014,02,15,05,53,1007.32
2014,02,15,05,54,1007.28
2014,02,15,05,55,1007.32
2014,02,15,05,56,1007.28
2014,02,15,05,57,1007.28
2014,02,15,05,58,1007.25
2014,02,15,05,59,1007.25
2014,02,15,06,00,1007.25
2014,02,15,06,01,1007.25
2014,02,15,06,02,1007.21
2014,02,15,06,03,1007.21
2014,02,15,06,04,1007.21
2014,02,15,06,05,1007.21
2014,02,15,06,06,1007.25
2014,02,15,06,07,1007.21
2014,02,15,06,08,1007.21
2014,02,15,06,09,1007.21
2014,02,15,06,10,1007.18
2014,02,15,06,11,1007.18
2014,02,15,06,12,1007.18
2014,02,15,06,13,1007.15
2014,02,15,06,14,1007.10
2014,02,15,06,15,1006.97
2014,02,15,06,16,1006.88
2014,02,15,06,17,1006.84
2014,02,15,06,18,1006.81
2014,02,15,06,19,1006.84
2014,02,15,06,20,1006.84
2014,02,15,06,21,1006.77
2014,02,15,06,22,1006.71
2014,02,15,06,23,1006.71
2014,02,15,06,24,1006.67
2014,02,15,06,25,1006.74
2014,02,15,06,26,1006.67
2014,02,15,06,27,1006.71
2014,02,15,06,28,1006.66
2014,02,15,06,29,1006.50
2014,02,15,06,30,1006.50
2014,02,15,06,31,1006.50
2014,02,15,06,32,1006.44
2014,02,15,06,33,1006.44
2014,02,15,06,34,1006.37
2014,02,15,06,35,1006.30
2014,02,15,06,36,1006.32
2014,02,15,06,37,1006.20
2014,02,15,06,38,1006.13
2014,02,15,06,39,1006.10
2014,02,15,06,40,1006.06
2014,02,15,06,41,1006.06
2014,02,15,06,42,1005.99
2014,02,15,06,43,1006.03
2014,02,15,06,44,1005.93
2014,02,15,06,45,1005.96
2014,02,15,06,46,1005.89
2014,02,15,06,47,1005.86
2014,02,15,06,48,1005.79
2014,02,15,06,49,1005.86
2014,02,15,06,50,1005.79
2014,02,15,06,51,1005.79
2014,02,15,06,52,1005.83
2014,02,15,06,53,1005.83
2014,02,15,06,54,1005.76
2014,02,15,06,55,1005.69
2014,02,15,06,56,1005.66
2014,02,15,06,57,1005.62
2014,02,15,06,58,1005.59
2014,02,15,06,59,1005.58
2014,02,15,07,00,1005.45
2014,02,15,07,01,1005.39
2014,02,15,07,02,1005.32
2014,02,15,07,03,1005.25
2014,02,15,07,04,1005.32
2014,02,15,07,05,1005.32
2014,02,15,07,06,1005.35
2014,02,15,07,07,1005.32
2014,02,15,07,08,1005.25
2014,02,15,07,09,1005.22
2014,02,15,07,10,1005.25
2014,02,15,07,11,1005.22
2014,02,15,07,12,1005.25
2014,02,15,07,13,1005.22
2014,02,15,07,14,1005.25
2014,02,15,07,15,1005.28
2014,02,15,07,16,1005.22
2014,02,15,07,17,1005.22
2014,02,15,07,18,1005.22
2014,02,15,07,19,1005.22
2014,02,15,07,20,1005.15
2014,02,15,07,21,1005.15
2014,02,15,07,22,1005.11
2014,02,15,07,23,1005.11
2014,02,15,07,24,1005.15
2014,02,15,07,25,1005.08
2014,02,15,07,26,1005.05
2014,02,15,07,27,1005.05
2014,02,15,07,28,1005.05
2014,02,15,07,29,1004.97
2014,02,15,07,30,1004.81
2014,02,15,07,31,1004.84
2014,02,15,07,32,1004.74
2014,02,15,07,33,1004.64
2014,02,15,07,34,1004.64
2014,02,15,07,35,1004.61
2014,02,15,07,36,1004.61
2014,02,15,07,37,1004.57
2014,02,15,07,38,1004.57
2014,02,15,07,39,1004.54
2014,02,15,07,40,1004.57
2014,02,15,07,41,1004.57
2014,02,15,07,42,1004.57
2014,02,15,07,43,1004.58
2014,02,15,07,44,1004.66
2014,02,15,07,45,1004.57
2014,02,15,07,46,1004.61
2014,02,15,07,47,1004.57
2014,02,15,07,48,1004.61
2014,02,15,07,49,1004.61
2014,02,15,07,50,1004.57
2014,02,15,07,51,1004.57
2014,02,15,07,52,1004.54
2014,02,15,07,53,1004.54
2014,02,15,07,54,1004.57
2014,02,15,07,55,1004.54
2014,02,15,07,56,1004.49
2014,02,15,07,57,1004.34
2014,02,15,07,58,1004.26
2014,02,15,07,59,1004.13
2014,02,15,08,00,1004.13
2014,02,15,08,01,1004.13
2014,02,15,08,02,1004.17
2014,02,15,08,03,1004.17
2014,02,15,08,04,1004.10
2014,02,15,08,05,1004.10
2014,02,15,08,06,1004.03
2014,02,15,08,07,1004.10
2014,02,15,08,08,1004.06
2014,02,15,08,09,1004.03
2014,02,15,08,10,1004.10
2014,02,15,08,11,1004.13
2014,02,15,08,12,1004.06
2014,02,15,08,13,1004.09
2014,02,15,08,14,1004.00
2014,02,15,08,15,1004.06
2014,02,15,08,16,1004.03
2014,02,15,08,17,1004.00
2014,02,15,08,18,1004.00
2014,02,15,08,19,1004.00
2014,02,15,08,20,1003.96
2014,02,15,08,21,1003.93
2014,02,15,08,22,1003.93
2014,02,15,08,23,1003.93
2014,02,15,08,24,1003.90
2014,02,15,08,25,1003.90
2014,02,15,08,26,1003.90
2014,02,15,08,27,1003.90
2014,02,15,08,28,1003.83
2014,02,15,08,29,1003.79
2014,02,15,08,30,1003.73
2014,02,15,08,31,1003.66
2014,02,15,08,32,1003.62
2014,02,15,08,33,1003.56
2014,02,15,08,34,1003.52
2014,02,15,08,35,1003.52
2014,02,15,08,36,1003.42
2014,02,15,08,37,1003.35
2014,02,15,08,38,1003.32
2014,02,15,08,39,1003.29
2014,02,15,08,40,1003.29
2014,02,15,08,41,1003.22
2014,02,15,08,42,1003.29
2014,02,15,08,43,1003.28
2014,02,15,08,44,1003.18
2014,02,15,08,45,1003.15
2014,02,15,08,46,1003.15
2014,02,15,08,47,1003.12
2014,02,15,08,48,1003.08
2014,02,15,08,49,1003.08
2014,02,15,08,50,1003.08
2014,02,15,08,51,1003.08
2014,02,15,08,52,1003.08
2014,02,15,08,53,1003.05
2014,02,15,08,54,1003.08
2014,02,15,08,55,1002.98
2014,02,15,08,56,1002.98
2014,02,15,08,57,1003.04
2014,02,15,08,58,1002.91
2014,02,15,08,59,1002.91
2014,02,15,09,00,1002.85
2014,02,15,09,01,1002.74
2014,02,15,09,02,1002.74
2014,02,15,09,03,1002.71
2014,02,15,09,04,1002.74
2014,02,15,09,05,1002.74
2014,02,15,09,06,1002.68
2014,02,15,09,07,1002.61
2014,02,15,09,08,1002.54
2014,02,15,09,09,1002.57
2014,02,15,09,10,1002.57
2014,02,15,09,11,1002.54
2014,02,15,09,12,1002.44
2014,02,15,09,13,1002.53
2014,02,15,09,14,1002.44
2014,02,15,09,15,1002.47
2014,02,15,09,16,1002.37
2014,02,15,09,17,1002.34
2014,02,15,09,18,1002.30
2014,02,15,09,19,1002.24
2014,02,15,09,20,1002.17
2014,02,15,09,21,1002.13
2014,02,15,09,22,1002.13
2014,02,15,09,23,1002.07
2014,02,15,09,24,1002.03
2014,02,15,09,25,1002.07
2014,02,15,09,26,1002.03
2014,02,15,09,27,1002.03
2014,02,15,09,28,1002.03
2014,02,15,09,29,1002.00
2014,02,15,09,30,1001.93
2014,02,15,09,31,1001.93
2014,02,15,09,32,1001.86
2014,02,15,09,33,1001.83
2014,02,15,09,34,1001.80
2014,02,15,09,35,1001.76
2014,02,15,09,36,1001.72
2014,02,15,09,37,1001.59
2014,02,15,09,38,1001.63
2014,02,15,09,39,1001.59
2014,02,15,09,40,1001.56
2014,02,15,09,41,1001.52
2014,02,15,09,42,1001.46
2014,02,15,09,43,1001.46
2014,02,15,09,44,1001.36
2014,02,15,09,45,1001.29
2014,02,15,09,46,1001.25
2014,02,15,09,47,1001.25
2014,02,15,09,48,1001.25
2014,02,15,09,49,1001.25
2014,02,15,09,50,1001.24
2014,02,15,09,51,1001.12
2014,02,15,09,52,1001.12
2014,02,15,09,53,1001.08
2014,02,15,09,54,1001.05
2014,02,15,09,55,1001.05
2014,02,15,09,56,1001.05
2014,02,15,09,57,1001.05
2014,02,15,09,58,1001.12
2014,02,15,09,59,1001.08
2014,02,15,10,00,1001.05
2014,02,15,10,01,1001.05
2014,02,15,10,02,1001.04
2014,02,15,10,03,1000.95
2014,02,15,10,04,1000.88
2014,02,15,10,05,1000.92
2014,02,15,10,06,1000.88
2014,02,15,10,07,1000.81
2014,02,15,10,08,1000.75
2014,02,15,10,09,1000.67
2014,02,15,10,10,1000.54
2014,02,15,10,11,1000.47
2014,02,15,10,12,1000.37
2014,02,15,10,13,1000.34
2014,02,15,10,14,1000.37
2014,02,15,10,15,1000.37
2014,02,15,10,16,1000.34
2014,02,15,10,17,1000.27
2014,02,15,10,18,1000.24
2014,02,15,10,19,1000.20
2014,02,15,10,20,1000.20
2014,02,15,10,21,1000.20
2014,02,15,10,22,1000.20
2014,02,15,10,23,1000.17
2014,02,15,10,24,1000.14
2014,02,15,10,25,1000.17
2014,02,15,10,26,1000.20
2014,02,15,10,27,1000.17
2014,02,15,10,28,1000.14
2014,02,15,10,29,1000.14
2014,02,15,10,30,1000.14
2014,02,15,10,31,1000.17
2014,02,15,10,32,1000.14
2014,02,15,10,33,1000.10
2014,02,15,10,34,1000.07
2014,02,15,10,35,999.99
2014,02,15,10,36,999.83
2014,02,15,10,37,999.90
2014,02,15,10,38,999.90
2014,02,15,10,39,999.90
2014,02,15,10,40,999.83
2014,02,15,10,41,999.73
2014,02,15,10,42,999.73
2014,02,15,10,43,999.63
2014,02,15,10,44,999.59
2014,02,15,10,45,999.53
2014,02,15,10,46,999.53
2014,02,15,10,47,999.53
2014,02,15,10,48,999.53
2014,02,15,10,49,999.46
2014,02,15,10,50,999.53
2014,02,15,10,51,999.55
2014,02,15,10,52,999.46
2014,02,15,10,53,999.39
2014,02,15,10,54,999.43
2014,02,15,10,55,999.39
2014,02,15,10,56,999.36
2014,02,15,10,57,999.39
2014,02,15,10,58,999.36
2014,02,15,10,59,999.36
2014,02,15,11,00,999.36
2014,02,15,11,01,999.32
2014,02,15,11,02,999.22
2014,02,15,11,03,999.26
2014,02,15,11,04,999.19
2014,02,15,11,05,999.12
2014,02,15,11,06,999.12
2014,02,15,11,07,999.12
2014,02,15,11,08,999.12
2014,02,15,11,09,999.05
2014,02,15,11,10,998.99
2014,02,15,11,11,998.95
2014,02,15,11,12,998.88
2014,02,15,11,13,998.85
2014,02,15,11,14,998.82
2014,02,15,11,15,998.78
2014,02,15,11,16,998.75
2014,02,15,11,17,998.71
2014,02,15,11,18,998.75
2014,02,15,11,19,998.78
2014,02,15,11,20,998.78
2014,02,15,11,21,998.71
2014,02,15,11,22,998.71
2014,02,15,11,23,998.71
2014,02,15,11,24,998.75
2014,02,15,11,25,998.75
2014,02,15,11,26,998.78
2014,02,15,11,27,998.75
2014,02,15,11,28,998.71
2014,02,15,11,29,998.61
2014,02,15,11,30,998.41
2014,02,15,11,31,998.41
2014,02,15,11,32,998.38
2014,02,15,11,33,998.38
2014,02,15,11,34,998.38
2014,02,15,11,35,998.44
2014,02,15,11,36,998.41
2014,02,15,11,37,998.58
2014,02,15,11,38,998.44
2014,02,15,11,39,998.44
2014,02,15,11,40,998.41
2014,02,15,11,41,998.38
2014,02,15,11,42,998.27
2014,02,15,11,43,998.34
2014,02,15,11,44,998.31
2014,02,15,11,45,998.27
2014,02,15,11,46,998.31
2014,02,15,11,47,998.24
2014,02,15,11,48,998.24
2014,02,15,11,49,998.27
2014,02,15,11,50,998.24
2014,02,15,11,51,998.24
2014,02,15,11,52,998.24
2014,02,15,11,53,998.24
2014,02,15,11,54,998.14
2014,02,15,11,55,998.09
2014,02,15,11,56,997.93
2014,02,15,11,57,997.83
2014,02,15,11,58,997.87
2014,02,15,11,59,997.87
2014,02,15,12,00,997.80
2014,02,15,12,01,997.83
2014,02,15,12,02,997.80
2014,02,15,12,03,997.67
2014,02,15,12,04,997.66
2014,02,15,12,05,997.60
2014,02,15,12,06,997.56
2014,02,15,12,07,997.56
2014,02,15,12,08,997.56
2014,02,15,12,09,997.56
2014,02,15,12,10,997.56
2014,02,15,12,11,997.53
2014,02,15,12,12,997.43
2014,02,15,12,13,997.50
2014,02,15,12,14,997.50
2014,02,15,12,15,997.50
2014,02,15,12,16,997.53
2014,02,15,12,17,997.43
2014,02,15,12,18,997.39
2014,02,15,12,19,997.39
2014,02,15,12,20,997.33
2014,02,15,12,21,997.29
2014,02,15,12,22,997.29
2014,02,15,12,23,997.22
2014,02,15,12,24,997.22
2014,02,15,12,25,997.12
2014,02,15,12,26,997.09
2014,02,15,12,27,997.09
2014,02,15,12,28,997.05
2014,02,15,12,29,997.02
2014,02,15,12,30,996.99
2014,02,15,12,31,996.92
2014,02,15,12,32,996.92
2014,02,15,12,33,996.95
2014,02,15,12,34,996.92
2014,02,15,12,35,996.89
2014,02,15,12,36,996.82
2014,02,15,12,37,996.78
2014,02,15,12,38,996.75
2014,02,15,12,39,996.65
2014,02,15,12,40,996.68
2014,02,15,12,41,996.58
2014,02,15,12,42,996.65
2014,02,15,12,43,996.55
2014,02,15,12,44,996.58
2014,02,15,12,45,996.48
2014,02,15,12,46,996.48
2014,02,15,12,47,996.45
2014,02,15,12,48,996.41
2014,02,15,12,49,996.45
2014,02,15,12,50,996.28
2014,02,15,12,51,996.28
2014,02,15,12,52,996.24
2014,02,15,12,53,996.24
2014,02,15,12,54,996.24
2014,02,15,12,55,996.14
2014,02,15,12,56,996.17
2014,02,15,12,57,996.07
2014,02,15,12,58,996.07
2014,02,15,12,59,996.01
2014,02,15,13,00,995.94
2014,02,15,13,01,996.03
2014,02,15,13,02,996.11
2014,02,15,13,03,996.01
2014,02,15,13,04,995.97
2014,02,15,13,05,995.94
2014,02,15,13,06,995.94
2014,02,15,13,07,995.77
2014,02,15,13,08,995.73
2014,02,15,13,09,995.70
2014,02,15,13,10,995.67
2014,02,15,13,11,995.67
2014,02,15,13,12,995.63
2014,02,15,13,13,995.60
2014,02,15,13,14,995.60
2014,02,15,13,15,995.60
2014,02,15,13,16,995.56
2014,02,15,13,17,995.46
2014,02,15,13,18,995.50
2014,02,15,13,19,995.46
2014,02,15,13,20,995.43
2014,02,15,13,21,995.46
2014,02,15,13,22,995.36
2014,02,15,13,23,995.36
2014,02,15,13,24,995.33
2014,02,15,13,25,995.26
2014,02,15,13,26,995.18
2014,02,15,13,27,995.09
2014,02,15,13,28,995.02
2014,02,15,13,29,995.06
2014,02,15,13,30,995.12
2014,02,15,13,31,995.02
2014,02,15,13,32,995.02
2014,02,15,13,33,994.96
2014,02,15,13,34,994.99
2014,02,15,13,35,994.92
2014,02,15,13,36,994.89
2014,02,15,13,37,994.82
2014,02,15,13,38,994.79
2014,02,15,13,39,994.79
2014,02,15,13,40,994.68
2014,02,15,13,41,994.65
2014,02,15,13,42,994.65
2014,02,15,13,43,994.65
2014,02,15,13,44,994.62
2014,02,15,13,45,994.62
2014,02,15,13,46,994.55
2014,02,15,13,47,994.52
2014,02,15,13,48,994.58
2014,02,15,13,49,994.55
2014,02,15,13,50,994.52
2014,02,15,13,51,994.48
2014,02,15,13,52,994.45
2014,02,15,13,53,994.41
2014,02,15,13,54,994.31
2014,02,15,13,55,994.21
2014,02,15,13,56,994.18
2014,02,15,13,57,994.14
2014,02,15,13,58,994.02
2014,02,15,13,59,993.94
2014,02,15,14,00,993.91
2014,02,15,14,01,993.80
2014,02,15,14,02,993.73
2014,02,15,14,03,993.60
2014,02,15,14,04,993.60
2014,02,15,14,05,993.60
2014,02,15,14,06,993.57
2014,02,15,14,07,993.53
2014,02,15,14,08,993.50
2014,02,15,14,09,993.43
2014,02,15,14,10,993.40
2014,02,15,14,11,993.40
2014,02,15,14,12,993.30
2014,02,15,14,13,993.30
2014,02,15,14,14,993.26
2014,02,15,14,15,993.26
2014,02,15,14,16,993.23
2014,02,15,14,17,993.23
2014,02,15,14,18,993.23
2014,02,15,14,19,993.23
2014,02,15,14,20,993.13
2014,02,15,14,21,993.06
2014,02,15,14,22,992.99
2014,02,15,14,23,993.03
2014,02,15,14,24,992.99
2014,02,15,14,25,992.92
2014,02,15,14,26,992.86
2014,02,15,14,27,992.89
2014,02,15,14,28,992.75
2014,02,15,14,29,992.69
2014,02,15,14,30,992.65
2014,02,15,14,31,992.65
2014,02,15,14,32,992.58
2014,02,15,14,33,992.58
2014,02,15,14,34,992.62
2014,02,15,14,35,992.55
2014,02,15,14,36,992.52
2014,02,15,14,37,992.58
2014,02,15,14,38,992.52
2014,02,15,14,39,992.54
2014,02,15,14,40,992.45
2014,02,15,14,41,992.38
2014,02,15,14,42,992.42
2014,02,15,14,43,992.31
2014,02,15,14,44,992.21
2014,02,15,14,45,992.18
2014,02,15,14,46,992.18
2014,02,15,14,47,992.14
2014,02,15,14,48,992.08
2014,02,15,14,49,992.11
2014,02,15,14,50,992.14
2014,02,15,14,51,992.08
2014,02,15,14,52,992.04
2014,02,15,14,53,991.98
2014,02,15,14,54,991.98
2014,02,15,14,55,991.87
2014,02,15,14,56,991.84
2014,02,15,14,57,991.81
2014,02,15,14,58,991.77
2014,02,15,14,59,991.74
2014,02,15,15,00,991.77
2014,02,15,15,01,991.65
2014,02,15,15,02,991.64
2014,02,15,15,03,991.53
2014,02,15,15,04,991.50
2014,02,15,15,05,991.50
2014,02,15,15,06,991.40
2014,02,15,15,07,991.43
2014,02,15,15,08,991.33
2014,02,15,15,09,991.37
2014,02,15,15,10,991.33
2014,02,15,15,11,991.26
2014,02,15,15,12,991.20
2014,02,15,15,13,991.20
2014,02,15,15,14,991.16
2014,02,15,15,15,991.20
2014,02,15,15,16,991.16
2014,02,15,15,17,991.13
2014,02,15,15,18,991.09
2014,02,15,15,19,990.89
2014,02,15,15,20,990.79
2014,02,15,15,21,990.86
2014,02,15,15,22,990.79
2014,02,15,15,23,990.79
2014,02,15,15,24,990.79
2014,02,15,15,25,990.76
2014,02,15,15,26,990.76
2014,02,15,15,27,990.72
2014,02,15,15,28,990.62
2014,02,15,15,29,990.65
2014,02,15,15,30,990.59
2014,02,15,15,31,990.59
2014,02,15,15,32,990.52
2014,02,15,15,33,990.45
2014,02,15,15,34,990.45
2014,02,15,15,35,990.28
2014,02,15,15,36,990.25
2014,02,15,15,37,990.21
2014,02,15,15,38,990.21
2014,02,15,15,39,990.15
2014,02,15,15,40,990.11
2014,02,15,15,41,990.04
2014,02,15,15,42,990.01
2014,02,15,15,43,989.91
2014,02,15,15,44,989.88
2014,02,15,15,45,989.91
2014,02,15,15,46,989.84
2014,02,15,15,47,989.77
2014,02,15,15,48,989.71
2014,02,15,15,49,989.67
2014,02,15,15,50,989.71
2014,02,15,15,51,989.67
2014,02,15,15,52,989.64
2014,02,15,15,53,989.47
2014,02,15,15,54,989.44
2014,02,15,15,55,989.44
2014,02,15,15,56,989.40
2014,02,15,15,57,989.40
2014,02,15,15,58,989.37
2014,02,15,15,59,989.27
2014,02,15,16,00,989.27
2014,02,15,16,01,989.20
2014,02,15,16,02,989.16
2014,02,15,16,03,989.20
2014,02,15,16,04,989.20
2014,02,15,16,05,989.16
2014,02,15,16,06,989.20
2014,02,15,16,07,989.13
2014,02,15,16,08,988.94
2014,02,15,16,09,988.89